DW8414 Weather Reports


Display with metric or nautical units.
time (UTC)temp
F
wind
direction
speed
MPH
gust
MPH
rain 1hr
in
rain 24hr
in
rain mn
in
humidity
%
barometer
mb
20260906191831 100 180 2.0 8.0 0.00 0.00 0.00 35 1013.6
20260906191533 99 56 0.0 1.0 0.00 0.00 0.00 38 1010.1
20260906191335 99 57 0.0 1.0 0.00 0.00 0.00 37 1013.7
20260906190837 100 268 0.0 6.0 0.00 0.00 0.00 36 1013.8
20260906190338 100 296 0.0 7.0 0.00 0.00 0.00 36 1013.9
20260906185843 100 145 2.0 8.0 0.00 0.00 0.00 38 1014.1
20260906185330 100 196 3.0 8.0 0.00 0.00 0.00 36 1014.1
20260906184841 100 217 1.0 7.0 0.00 0.00 0.00 36 1014.2
20260906184524 99 139 1.0 7.0 0.00 0.00 0.00 38 1010.7
20260906184327 100 160 1.0 4.0 0.00 0.00 0.00 36 1014.3
20260906183848 100 271 1.0 6.0 0.00 0.00 0.00 38 1014.4
20260906183331 100 252 1.0 8.0 0.00 0.00 0.00 37 1014.4
20260906183102 99 203 2.0 8.0 0.00 0.00 0.00 37 1010.9
20260906182835 100 147 2.0 8.0 0.00 0.00 0.00 37 1014.5
20260906182327 99 215 0.0 9.0 0.00 0.00 0.00 37 1014.6
20260906181828 98 133 3.0 9.0 0.00 0.00 0.00 38 1014.7
20260906181537 97 150 0.0 0.0 0.00 0.00 0.00 38 1011.3
20260906181356 98 225 0.0 0.0 0.00 0.00 0.00 38 1014.9
20260906180850 98 226 0.0 0.0 0.00 0.00 0.00 40 1014.9
20260906180338 98 196 0.0 3.0 0.00 0.00 0.00 38 1015.0
20260906180119 97 175 0.0 5.0 0.00 0.00 0.00 38 1011.5
20260906175841 98 157 0.0 5.0 0.00 0.00 0.00 38 1015.1
20260906175345 98 141 2.0 6.0 0.00 0.00 0.00 37 1015.3
20260906174818 98 244 0.0 6.0 0.00 0.00 0.00 40 1015.4
20260906174515 98 188 1.0 6.0 0.00 0.00 0.00 39 1011.9
20260906174346 99 232 0.0 5.0 0.00 0.00 0.00 39 1015.4
20260906173827 98 229 0.0 4.0 0.00 0.00 0.00 41 1015.5
20260906173327 98 269 0.0 4.0 0.00 0.00 0.00 40 1015.7
20260906173044 97 105 0.0 4.0 0.00 0.00 0.00 38 1012.1
20260906172827 98 134 0.0 4.0 0.00 0.00 0.00 40 1015.8
20260906172328 98 355 1.0 4.0 0.00 0.00 0.00 39 1015.8
20260906171830 97 174 0.0 3.0 0.00 0.00 0.00 39 1016.0
20260906171614 97 175 0.0 3.0 0.00 0.00 0.00 39 1012.5
20260906171318 98 237 0.0 3.0 0.00 0.00 0.00 40 1016.1
20260906170822 97 218 0.0 0.0 0.00 0.00 0.00 39 1016.2
20260906170327 97 238 0.0 0.0 0.00 0.00 0.00 41 1016.2
20260906170047 96 238 0.0 2.0 0.00 0.00 0.00 44 1012.7
20260906165833 96 238 0.0 2.0 0.00 0.00 0.00 42 1016.3
20260906165330 96 256 0.0 2.0 0.00 0.00 0.00 43 1016.3
20260906164836 96 267 0.0 0.0 0.00 0.00 0.00 43 1016.4
20260906164601 95 242 0.0 0.0 0.00 0.00 0.00 42 1012.9
20260906164324 96 213 0.0 0.0 0.00 0.00 0.00 42 1016.4
20260906163814 95 267 0.0 0.0 0.00 0.00 0.00 43 1016.4
20260906163335 95 244 0.0 0.0 0.00 0.00 0.00 43 1016.4
20260906163046 94 244 0.0 0.0 0.00 0.00 0.00 43 1012.9
20260906162837 95 243 0.0 0.0 0.00 0.00 0.00 43 1016.5
20260906162328 95 237 0.0 0.0 0.00 0.00 0.00 43 1016.5
20260906161903 94 169 0.0 0.0 0.00 0.00 0.00 43 1016.5
20260906161502 94 213 0.0 0.0 0.00 0.00 0.00 44 1012.9
20260906161335 94 261 0.0 0.0 0.00 0.00 0.00 43 1016.4
20260906160839 94 254 0.0 0.0 0.00 0.00 0.00 45 1016.5
20260906160319 93 254 0.0 4.0 0.00 0.00 0.00 46 1016.4
20260906160029 93 254 0.0 4.0 0.00 0.00 0.00 45 1012.9
20260906155820 93 269 0.0 4.0 0.00 0.00 0.00 46 1016.3
20260906155320 93 241 0.0 0.0 0.00 0.00 0.00 47 1016.4
20260906154824 93 301 0.0 0.0 0.00 0.00 0.00 46 1016.3
20260906154512 92 259 0.0 0.0 0.00 0.00 0.00 46 1012.7
20260906154328 93 271 0.0 0.0 0.00 0.00 0.00 46 1016.2
20260906153854 93 303 0.0 1.0 0.00 0.00 0.00 48 1016.2
20260906153316 92 291 0.0 2.0 0.00 0.00 0.00 49 1016.2
20260906153033 91 292 0.0 2.0 0.00 0.00 0.00 48 1012.7
20260906152819 92 292 0.0 2.0 0.00 0.00 0.00 48 1016.1
20260906152344 92 241 0.0 0.0 0.00 0.00 0.00 48 1016.1
20260906151847 91 262 0.0 1.0 0.00 0.00 0.00 50 1016.1
20260906151505 91 273 0.0 1.0 0.00 0.00 0.00 49 1012.6
20260906151318 91 264 0.0 1.0 0.00 0.00 0.00 49 1016.1
20260906150835 91 269 0.0 2.0 0.00 0.00 0.00 49 1016.1
20260906150322 91 247 0.0 1.0 0.00 0.00 0.00 50 1016.1
20260906150101 90 217 0.0 0.0 0.00 0.00 0.00 50 1012.5
20260906145821 90 259 0.0 0.0 0.00 0.00 0.00 51 1016.1
20260906145323 90 304 0.0 1.0 0.00 0.00 0.00 52 1016.0
20260906144827 90 186 0.0 1.0 0.00 0.00 0.00 52 1016.0
20260906144537 89 202 0.0 1.0 0.00 0.00 0.00 53 1012.5
20260906144328 89 202 0.0 1.0 0.00 0.00 0.00 53 1016.0
20260906143848 88 209 0.0 0.0 0.00 0.00 0.00 55 1016.1
20260906143347 88 209 0.0 0.0 0.00 0.00 0.00 58 1016.1
20260906143055 87 209 0.0 0.0 0.00 0.00 0.00 57 1012.7
20260906142849 87 192 0.0 0.0 0.00 0.00 0.00 58 1016.1
20260906142348 86 191 0.0 0.0 0.00 0.00 0.00 60 1016.1
20260906141826 85 191 0.0 0.0 0.00 0.00 0.00 60 1016.1
20260906141609 85 171 0.0 0.0 0.00 0.00 0.00 61 1012.6
20260906141321 85 171 0.0 0.0 0.00 0.00 0.00 62 1016.0
20260906140856 84 171 0.0 0.0 0.00 0.00 0.00 64 1016.0
20260906140328 83 171 0.0 0.0 0.00 0.00 0.00 65 1016.0
20260906140005 82 171 0.0 0.0 0.00 0.00 0.00 66 1012.6
20260906135829 82 171 0.0 0.0 0.00 0.00 0.00 67 1016.0
20260906135342 81 171 0.0 0.0 0.00 0.00 0.00 69 1016.0
20260906134826 81 171 0.0 0.0 0.00 0.00 0.00 70 1016.1
20260906134507 79 171 0.0 0.0 0.00 0.00 0.00 71 1012.5
20260906134402 80 171 0.0 0.0 0.00 0.00 0.00 71 1016.0
20260906133828 79 171 0.0 0.0 0.00 0.00 0.00 72 1015.9
20260906133313 78 171 0.0 0.0 0.00 0.00 0.00 74 1015.9
20260906133044 77 171 0.0 0.0 0.00 0.00 0.00 75 1012.4
20260906132838 78 171 0.0 0.0 0.00 0.00 0.00 75 1015.8
20260906132346 77 171 0.0 0.0 0.00 0.00 0.00 77 1015.8
20260906131835 76 171 0.0 0.0 0.00 0.00 0.00 78 1015.7
20260906131515 75 171 0.0 0.0 0.00 0.00 0.00 81 1012.2
20260906131316 75 171 0.0 0.0 0.00 0.00 0.00 81 1015.6
20260906130844 74 171 0.0 0.0 0.00 0.00 0.00 82 1015.5
20260906130320 74 171 0.0 0.0 0.00 0.00 0.00 83 1015.5
20260906130053 73 171 0.0 0.0 0.00 0.00 0.00 83 1012.1
20260906125824 73 171 0.0 0.0 0.00 0.00 0.00 84 1015.5
20260906125349 73 171 0.0 0.0 0.00 0.00 0.00 84 1015.5
20260906124836 72 171 0.0 0.0 0.00 0.00 0.00 86 1015.4
20260906124512 71 171 0.0 0.0 0.00 0.00 0.00 87 1011.9
20260906124334 71 171 0.0 0.0 0.00 0.00 0.00 87 1015.3
20260906123838 71 171 0.0 0.0 0.00 0.00 0.00 86 1015.2
20260906123320 71 171 0.0 0.0 0.00 0.00 0.00 85 1015.1
20260906123028 70 171 0.0 0.0 0.00 0.00 0.00 85 1011.6
20260906122849 71 171 0.0 0.0 0.00 0.00 0.00 85 1015.0
20260906122313 70 171 0.0 0.0 0.00 0.00 0.00 85 1015.0
20260906121817 70 171 0.0 0.0 0.00 0.00 0.00 85 1015.0
20260906121615 70 171 0.0 0.0 0.00 0.00 0.00 85 1011.5
20260906121350 71 171 0.0 0.0 0.00 0.00 0.00 85 1014.9
20260906120847 71 171 0.0 0.0 0.00 0.00 0.00 84 1014.7
20260906120354 71 171 0.0 0.0 0.00 0.00 0.00 85 1014.6
20260906120122 70 171 0.0 0.0 0.00 0.00 0.00 85 1011.0
20260906115823 71 171 0.0 0.0 0.00 0.00 0.00 85 1014.4
20260906115325 71 171 0.0 0.0 0.00 0.00 0.00 85 1014.4
20260906114821 71 171 0.0 0.0 0.00 0.00 0.00 85 1014.3
20260906114554 70 171 0.0 0.0 0.00 0.00 0.00 84 1010.9
20260906114342 71 171 0.0 0.0 0.00 0.00 0.00 84 1014.3
20260906113834 71 171 0.0 0.0 0.00 0.00 0.00 84 1014.2
20260906113334 71 171 0.0 0.0 0.00 0.00 0.00 84 1014.2
20260906113030 71 171 0.0 0.0 0.00 0.00 0.00 84 1010.7
20260906112825 71 171 0.0 0.0 0.00 0.00 0.00 84 1014.1
20260906112321 71 171 0.0 0.0 0.00 0.00 0.00 83 1014.1
20260906111858 71 171 0.0 0.0 0.00 0.00 0.00 83 1014.1
20260906111607 71 171 0.0 0.0 0.00 0.00 0.00 83 1010.6
20260906111322 71 171 0.0 0.0 0.00 0.00 0.00 83 1014.1
20260906110831 72 171 0.0 0.0 0.00 0.00 0.00 84 1014.2
20260906110319 72 171 0.0 0.0 0.00 0.00 0.00 83 1014.1
20260906110050 71 171 0.0 0.0 0.00 0.00 0.00 83 1010.7
20260906105825 72 171 0.0 0.0 0.00 0.00 0.00 83 1014.2
20260906105344 72 171 0.0 0.0 0.00 0.00 0.00 83 1014.1
20260906104845 72 171 0.0 0.0 0.00 0.00 0.00 83 1014.2
20260906104533 71 171 0.0 0.0 0.00 0.00 0.00 83 1010.7
20260906104346 72 171 0.0 0.0 0.00 0.00 0.00 82 1014.2
20260906103822 72 171 0.0 0.0 0.00 0.00 0.00 82 1014.1
20260906103328 72 171 0.0 0.0 0.00 0.00 0.00 82 1014.2
20260906103050 71 171 0.0 0.0 0.00 0.00 0.00 82 1010.7
20260906102844 72 171 0.0 0.0 0.00 0.00 0.00 82 1014.1
20260906102325 72 171 0.0 0.0 0.00 0.00 0.00 82 1014.2
20260906101843 72 171 0.0 0.0 0.00 0.00 0.00 82 1014.2
20260906101625 72 171 0.0 0.0 0.00 0.00 0.00 82 1010.7
20260906101333 72 171 0.0 0.0 0.00 0.00 0.00 82 1014.1
20260906100833 72 171 0.0 0.0 0.00 0.00 0.00 82 1014.1
20260906100317 72 171 0.0 0.0 0.00 0.00 0.00 81 1014.2
20260906100042 72 171 0.0 0.0 0.00 0.00 0.00 81 1010.7
20260906095838 72 171 0.0 0.0 0.00 0.00 0.00 81 1014.2
20260906095341 72 171 0.0 0.0 0.00 0.00 0.00 81 1014.2
20260906094848 73 171 0.0 0.0 0.00 0.00 0.00 81 1014.1
20260906094610 72 171 0.0 0.0 0.00 0.00 0.00 81 1010.6
20260906094333 73 171 0.0 0.0 0.00 0.00 0.00 81 1014.1
20260906093847 72 171 0.0 0.0 0.00 0.00 0.00 81 1014.1
20260906093345 72 171 0.0 0.0 0.00 0.00 0.00 81 1014.0
20260906093002 72 171 0.0 0.0 0.00 0.00 0.00 81 1010.5
20260906092823 72 171 0.0 0.0 0.00 0.00 0.00 81 1013.9
20260906092325 73 171 0.0 0.0 0.00 0.00 0.00 80 1013.9
20260906091827 73 171 0.0 0.0 0.00 0.00 0.00 80 1013.9
20260906091550 72 171 0.0 0.0 0.00 0.00 0.00 80 1010.4
20260906091319 73 171 0.0 0.0 0.00 0.00 0.00 80 1014.0
20260906090820 73 171 0.0 0.0 0.00 0.00 0.00 80 1014.0
20260906090329 73 171 0.0 0.0 0.00 0.00 0.00 80 1014.0
20260906090038 72 171 0.0 0.0 0.00 0.00 0.00 79 1010.4
20260906085838 73 171 0.0 0.0 0.00 0.00 0.00 79 1014.0
20260906085340 73 171 0.0 0.0 0.00 0.00 0.00 79 1013.9
20260906084819 73 171 0.0 0.0 0.00 0.00 0.00 78 1013.9
20260906084527 73 171 0.0 0.0 0.00 0.00 0.00 78 1010.4
20260906084322 73 171 0.0 0.0 0.00 0.00 0.00 78 1013.9
20260906083825 73 171 0.0 0.0 0.00 0.00 0.00 77 1013.9
20260906083330 74 171 0.0 0.0 0.00 0.00 0.00 77 1013.9
20260906083057 73 171 0.0 0.0 0.00 0.00 0.00 77 1010.3
20260906082836 74 171 0.0 0.0 0.00 0.00 0.00 77 1013.9
20260906082325 74 171 0.0 0.0 0.00 0.00 0.00 77 1013.9
20260906081826 74 171 0.0 0.0 0.00 0.00 0.00 77 1014.0
20260906081530 74 171 0.0 0.0 0.00 0.00 0.00 77 1010.3
20260906081341 74 171 0.0 0.0 0.00 0.00 0.00 77 1013.9
20260906080842 74 171 0.0 0.0 0.00 0.00 0.00 76 1013.9
20260906080319 74 171 0.0 0.0 0.00 0.00 0.00 76 1014.0
20260906080024 74 171 0.0 0.0 0.00 0.00 0.00 76 1010.4
20260906075823 75 171 0.0 0.0 0.00 0.00 0.00 75 1014.0
20260906075327 75 171 0.0 0.0 0.00 0.00 0.00 75 1013.9
20260906074820 75 171 0.0 0.0 0.00 0.00 0.00 75 1013.9
20260906074503 74 171 0.0 0.0 0.00 0.00 0.00 75 1010.3
20260906074357 75 171 0.0 0.0 0.00 0.00 0.00 75 1013.9
20260906073859 75 171 0.0 0.0 0.00 0.00 0.00 75 1013.8
20260906073356 75 171 0.0 0.0 0.00 0.00 0.00 75 1013.8
20260906073056 75 171 0.0 0.0 0.00 0.00 0.00 75 1010.2
20260906072843 75 171 0.0 0.0 0.00 0.00 0.00 75 1013.8
20260906072332 76 171 0.0 0.0 0.00 0.00 0.00 74 1013.8
20260906071832 76 171 0.0 0.0 0.00 0.00 0.00 74 1013.8
20260906071535 75 171 0.0 0.0 0.00 0.00 0.00 74 1010.2
20260906071317 76 171 0.0 0.0 0.00 0.00 0.00 74 1013.8
20260906070843 76 171 0.0 0.0 0.00 0.00 0.00 74 1013.7
20260906070400 76 171 0.0 0.0 0.00 0.00 0.00 75 1013.7
20260906070053 75 171 0.0 0.0 0.00 0.00 0.00 75 1010.1
20260906065841 76 171 0.0 0.0 0.00 0.00 0.00 75 1013.7
20260906065332 76 171 0.0 0.0 0.00 0.00 0.00 74 1013.6
20260906064817 76 171 0.0 0.0 0.00 0.00 0.00 75 1013.7
20260906064532 75 171 0.0 0.0 0.00 0.00 0.00 75 1010.0
20260906064325 76 171 0.0 0.0 0.00 0.00 0.00 74 1013.6
20260906063813 76 171 0.0 0.0 0.00 0.00 0.00 73 1013.6
20260906063347 76 171 0.0 0.0 0.00 0.00 0.00 73 1013.6
20260906063101 75 171 0.0 0.0 0.00 0.00 0.00 73 1010.0
20260906062845 76 171 0.0 0.0 0.00 0.00 0.00 73 1013.6
20260906062316 76 171 0.0 0.0 0.00 0.00 0.00 73 1013.6
20260906061824 76 171 0.0 0.0 0.00 0.00 0.00 73 1013.7
20260906061548 76 171 0.0 0.0 0.00 0.00 0.00 73 1010.1
20260906061329 76 171 0.0 0.0 0.00 0.00 0.00 73 1013.7
20260906060823 76 171 0.0 0.0 0.00 0.00 0.00 73 1013.8
20260906060326 76 171 0.0 0.0 0.00 0.00 0.00 73 1013.8
20260906060004 76 171 0.0 0.0 0.00 0.00 0.00 73 1010.1
20260906055828 77 171 0.0 0.0 0.00 0.00 0.00 73 1013.7
20260906055328 77 171 0.0 0.0 0.00 0.00 0.00 72 1013.8
20260906054820 77 171 0.0 0.0 0.00 0.00 0.00 71 1013.9
20260906054606 77 171 0.0 0.0 0.00 0.00 0.00 71 1010.2
20260906054347 77 171 0.0 0.0 0.00 0.00 0.00 71 1013.8
20260906053847 77 171 0.0 0.0 0.00 0.00 0.00 71 1013.8
20260906053318 78 171 0.0 0.0 0.00 0.00 0.00 71 1013.9
20260906053016 77 171 0.0 0.0 0.00 0.00 0.00 71 1010.1
20260906052824 78 171 0.0 0.0 0.00 0.00 0.00 71 1013.8
20260906052332 78 171 0.0 0.0 0.00 0.00 0.00 71 1013.7
20260906051826 78 171 0.0 0.0 0.00 0.00 0.00 70 1013.8
20260906051503 78 171 0.0 0.0 0.00 0.00 0.00 70 1010.1
20260906051327 78 171 0.0 0.0 0.00 0.00 0.00 70 1013.8
20260906050825 78 171 0.0 0.0 0.00 0.00 0.00 69 1013.8
20260906050326 79 171 0.0 0.0 0.00 0.00 0.00 69 1013.7
20260906050026 78 171 0.0 0.0 0.00 0.00 0.00 68 1010.1
20260906045835 79 171 0.0 0.0 0.00 0.00 0.00 68 1013.7
20260906045354 79 171 0.0 0.0 0.00 0.00 0.00 67 1013.8
20260906044824 79 171 0.0 0.0 0.00 0.00 0.00 67 1013.7
20260906044558 79 171 0.0 0.0 0.00 0.00 0.00 67 1010.1
20260906044318 80 171 0.0 0.0 0.00 0.00 0.00 66 1013.8
20260906043819 80 171 0.0 0.0 0.00 0.00 0.00 65 1013.7
20260906043321 80 171 0.0 0.0 0.00 0.00 0.00 65 1013.7
20260906043034 80 171 0.0 0.0 0.00 0.00 0.00 65 1010.0
20260906042839 81 171 0.0 0.0 0.00 0.00 0.00 65 1013.5
20260906042341 81 171 0.0 0.0 0.00 0.00 0.00 64 1013.6
20260906041825 82 171 0.0 0.0 0.00 0.00 0.00 63 1013.5
20260906041537 81 171 0.0 0.0 0.00 0.00 0.00 62 1010.0
20260906041330 82 171 0.0 0.0 0.00 0.00 0.00 62 1013.6
20260906040824 82 171 0.0 0.0 0.00 0.00 0.00 61 1013.6
20260906040340 83 171 0.0 0.0 0.00 0.00 0.00 61 1013.6
20260906040001 83 171 0.0 0.0 0.00 0.00 0.00 61 1010.0
20260906035835 83 171 0.0 0.0 0.00 0.00 0.00 61 1013.6
20260906035335 84 171 0.0 0.0 0.00 0.00 0.00 60 1013.5
20260906034823 84 171 0.0 0.0 0.00 0.00 0.00 59 1013.6
20260906034602 84 171 0.0 0.0 0.00 0.00 0.00 59 1010.0
20260906034323 84 171 0.0 0.0 0.00 0.00 0.00 58 1013.4
20260906033843 84 171 0.0 0.0 0.00 0.00 0.00 57 1013.3
20260906033347 84 171 0.0 0.0 0.00 0.00 0.00 57 1013.2
20260906033058 84 171 0.0 0.0 0.00 0.00 0.00 57 1009.5
20260906032818 85 171 0.0 0.0 0.00 0.00 0.00 57 1013.1
20260906032319 85 171 0.0 0.0 0.00 0.00 0.00 57 1013.1
20260906031825 85 171 0.0 0.0 0.00 0.00 0.00 57 1013.0
20260906031535 84 171 0.0 0.0 0.00 0.00 0.00 56 1009.3
20260906031326 85 171 0.0 0.0 0.00 0.00 0.00 57 1012.9
20260906030819 85 171 0.0 0.0 0.00 0.00 0.00 57 1013.0
20260906030351 85 171 0.0 0.0 0.00 0.00 0.00 56 1013.1
20260906025856 85 171 0.0 0.0 0.00 0.00 0.00 55 1013.1
20260906025323 85 171 0.0 0.0 0.00 0.00 0.00 55 1013.1
20260906024824 85 171 0.0 0.0 0.00 0.00 0.00 55 1013.0
20260906024516 85 171 0.0 0.0 0.00 0.00 0.00 55 1009.3
20260906024330 85 171 0.0 0.0 0.00 0.00 0.00 55 1012.9
20260906023816 85 171 0.0 0.0 0.00 0.00 0.00 55 1012.8
20260906023319 85 171 0.0 0.0 0.00 0.00 0.00 55 1012.7
20260906023044 85 171 0.0 0.0 0.00 0.00 0.00 55 1009.1
20260906022843 85 171 0.0 0.0 0.00 0.00 0.00 55 1012.7
20260906022322 85 171 0.0 0.0 0.00 0.00 0.00 55 1012.6
20260906021845 85 171 0.0 0.0 0.00 0.00 0.00 55 1012.5
20260906021606 85 171 0.0 0.0 0.00 0.00 0.00 55 1008.8
20260906021333 86 171 0.0 0.0 0.00 0.00 0.00 56 1012.5
20260906020814 86 171 0.0 0.0 0.00 0.00 0.00 55 1012.4
20260906020318 86 171 0.0 0.0 0.00 0.00 0.00 56 1012.3
20260906020043 86 171 0.0 0.0 0.00 0.00 0.00 55 1008.7
20260906015840 86 171 0.0 0.0 0.00 0.00 0.00 54 1012.3
20260906015341 86 171 0.0 0.0 0.00 0.00 0.00 52 1012.3
20260906014832 86 171 0.0 0.0 0.00 0.00 0.00 52 1012.2
20260906014522 86 171 0.0 0.0 0.00 0.00 0.00 52 1008.5
20260906014317 87 171 0.0 0.0 0.00 0.00 0.00 52 1012.1
20260906013842 87 171 0.0 0.0 0.00 0.00 0.00 52 1012.0
20260906013316 87 171 0.0 0.0 0.00 0.00 0.00 51 1012.1
20260906013006 87 171 0.0 0.0 0.00 0.00 0.00 51 1008.3
20260906012821 88 171 0.0 0.0 0.00 0.00 0.00 52 1012.0
20260906012325 88 171 0.0 0.0 0.00 0.00 0.00 51 1012.0
20260906011848 88 171 0.0 0.0 0.00 0.00 0.00 50 1012.0
20260906011517 88 171 0.0 0.0 0.00 0.00 0.00 51 1008.2
20260906011335 89 171 0.0 0.0 0.00 0.00 0.00 51 1012.0
20260906010836 90 171 0.0 0.0 0.00 0.00 0.00 50 1012.0
20260906010340 90 171 0.0 0.0 0.00 0.00 0.00 49 1012.1
20260906010146 90 171 0.0 0.0 0.00 0.00 0.00 49 1008.4
20260906005826 91 171 0.0 0.0 0.00 0.00 0.00 48 1012.0
20260906005331 91 171 0.0 0.0 0.00 0.00 0.00 47 1012.0
20260906004833 92 171 0.0 0.0 0.00 0.00 0.00 46 1012.0
20260906004556 91 171 0.0 0.0 0.00 0.00 0.00 46 1008.1
20260906004333 92 171 0.0 0.0 0.00 0.00 0.00 46 1011.9
20260906003822 93 171 0.0 0.0 0.00 0.00 0.00 46 1011.8
20260906003359 94 171 0.0 0.0 0.00 0.00 0.00 46 1011.7
20260906003109 93 171 0.0 0.0 0.00 0.00 0.00 45 1008.1
20260906002827 94 171 0.0 0.0 0.00 0.00 0.00 45 1011.8
20260906002330 95 171 0.0 0.0 0.00 0.00 0.00 44 1011.7
20260906001838 95 171 0.0 0.0 0.00 0.00 0.00 42 1011.8
20260906001542 95 171 0.0 0.0 0.00 0.00 0.00 42 1008.0
20260906001320 95 171 0.0 0.0 0.00 0.00 0.00 41 1011.8
20260906000839 95 171 0.0 0.0 0.00 0.00 0.00 40 1011.8
20260906000342 96 171 0.0 0.0 0.00 0.00 0.00 40 1011.9
20260906000006 95 171 0.0 0.0 0.00 0.00 0.00 39 1008.2
20260905235838 96 171 0.0 0.0 0.00 0.00 0.00 38 1011.9
20260905235317 96 171 0.0 0.0 0.00 0.00 0.00 38 1011.9
20260905234818 97 171 0.0 0.0 0.00 0.00 0.00 38 1011.8
20260905234525 96 171 0.0 0.0 0.00 0.00 0.00 37 1008.1
20260905234335 97 171 0.0 5.0 0.00 0.00 0.00 37 1011.8
20260905233842 97 171 0.0 5.0 0.00 0.00 0.00 36 1011.7
20260905233314 97 180 0.0 1.0 0.00 0.00 0.00 37 1011.8
20260905233009 97 165 0.0 1.0 0.00 0.00 0.00 37 1008.2
20260905232822 97 202 0.0 1.0 0.00 0.00 0.00 37 1011.8
20260905232326 98 179 0.0 4.0 0.00 0.00 0.00 36 1011.9
20260905231835 98 126 0.0 4.0 0.00 0.00 0.00 36 1011.9
20260905231543 98 162 0.0 4.0 0.00 0.00 0.00 36 1008.2
20260905231335 98 207 0.0 4.0 0.00 0.00 0.00 36 1012.0
20260905230904 99 215 0.0 5.0 0.00 0.00 0.00 36 1011.9
20260905230343 99 168 1.0 5.0 0.00 0.00 0.00 36 1011.9
20260905230112 99 167 1.0 4.0 0.00 0.00 0.00 36 1008.1
20260905225832 99 197 0.0 7.0 0.00 0.00 0.00 35 1011.8
20260905225319 100 196 3.0 7.0 0.00 0.00 0.00 35 1011.9
20260905224845 100 225 0.0 3.0 0.00 0.00 0.00 35 1011.8
20260905224600 100 201 0.0 4.0 0.00 0.00 0.00 36 1008.1
20260905224352 100 206 0.0 5.0 0.00 0.00 0.00 35 1011.9
20260905223819 100 227 2.0 7.0 0.00 0.00 0.00 35 1012.0
20260905223358 100 169 2.0 7.0 0.00 0.00 0.00 37 1011.9
20260905223105 100 142 2.0 7.0 0.00 0.00 0.00 35 1008.1
20260905222859 100 126 0.0 4.0 0.00 0.00 0.00 36 1011.9
20260905222341 100 178 0.0 12.0 0.00 0.00 0.00 35 1011.8
20260905221839 100 207 3.0 12.0 0.00 0.00 0.00 36 1011.8
20260905221606 100 176 2.0 7.0 0.00 0.00 0.00 35 1008.0
20260905221328 101 233 0.0 6.0 0.00 0.00 0.00 36 1011.8
20260905220817 101 163 0.0 5.0 0.00 0.00 0.00 35 1011.8
20260905220328 101 182 1.0 8.0 0.00 0.00 0.00 36 1011.8
20260905220032 100 178 0.0 8.0 0.00 0.00 0.00 37 1008.0
20260905215827 101 208 1.0 8.0 0.00 0.00 0.00 36 1011.8
20260905215335 101 203 1.0 4.0 0.00 0.00 0.00 36 1011.8
20260905214838 100 175 0.0 1.0 0.00 0.00 0.00 36 1011.8
20260905214607 100 213 0.0 3.0 0.00 0.00 0.00 38 1008.1
20260905214327 100 221 0.0 5.0 0.00 0.00 0.00 37 1011.8
20260905213832 100 184 1.0 5.0 0.00 0.00 0.00 36 1011.9
20260905213337 101 170 0.0 6.0 0.00 0.00 0.00 36 1011.9
20260905213027 100 186 1.0 6.0 0.00 0.00 0.00 36 1008.1
20260905212825 101 165 0.0 6.0 0.00 0.00 0.00 36 1011.9
20260905212325 101 194 0.0 6.0 0.00 0.00 0.00 36 1011.9
20260905211827 101 156 1.0 8.0 0.00 0.00 0.00 36 1011.9
20260905211604 100 205 1.0 8.0 0.00 0.00 0.00 37 1008.3
20260905211352 101 179 1.0 8.0 0.00 0.00 0.00 37 1011.9
20260905210839 100 213 0.0 7.0 0.00 0.00 0.00 38 1011.9
20260905210359 101 209 1.0 6.0 0.00 0.00 0.00 36 1011.9
20260905210117 100 132 1.0 12.0 0.00 0.00 0.00 37 1008.3
20260905205824 101 227 0.0 12.0 0.00 0.00 0.00 37 1012.0
20260905205358 101 204 3.0 12.0 0.00 0.00 0.00 36 1012.0
20260905204836 101 146 2.0 7.0 0.00 0.00 0.00 37 1012.1
20260905204520 100 180 1.0 7.0 0.00 0.00 0.00 39 1008.4
20260905204320 100 149 1.0 6.0 0.00 0.00 0.00 37 1012.3
20260905203844 101 194 0.0 6.0 0.00 0.00 0.00 37 1012.4
20260905203330 101 130 1.0 5.0 0.00 0.00 0.00 37 1012.4
20260905203056 100 209 0.0 3.0 0.00 0.00 0.00 37 1008.7
20260905202823 101 126 0.0 7.0 0.00 0.00 0.00 38 1012.4
20260905202326 101 183 1.0 7.0 0.00 0.00 0.00 38 1012.7
20260905201828 100 129 0.0 6.0 0.00 0.00 0.00 35 1012.7
20260905201532 100 194 0.0 1.0 0.00 0.00 0.00 37 1009.2
20260905201331 100 189 0.0 7.0 0.00 0.00 0.00 38 1012.9
20260905200835 100 129 1.0 7.0 0.00 0.00 0.00 38 1012.9
20260905200321 100 144 1.0 10.0 0.00 0.00 0.00 38 1012.9
20260905200006 100 105 1.0 10.0 0.00 0.00 0.00 38 1009.3
20260905195824 100 135 1.0 8.0 0.00 0.00 0.00 38 1013.0
20260905195327 100 192 0.0 5.0 0.00 0.00 0.00 38 1013.0
20260905194828 100 215 2.0 5.0 0.00 0.00 0.00 41 1013.1
20260905194552 99 134 0.0 6.0 0.00 0.00 0.00 39 1009.4
20260905194319 100 174 0.0 6.0 0.00 0.00 0.00 38 1013.2
20260905193850 100 180 1.0 6.0 0.00 0.00 0.00 40 1013.2
20260905193322 100 128 0.0 5.0 0.00 0.00 0.00 38 1013.3
20260905193018 99 164 0.0 5.0 0.00 0.00 0.00 40 1009.7
20260905192829 99 252 0.0 8.0 0.00 0.00 0.00 40 1013.3
20260905192334 99 217 1.0 8.0 0.00 0.00 0.00 40 1013.5